Date String (YYYY-MM-DD hh:mm:ss) UTC,Instrument flags,Ambient pressure (hPa),Sample flow (lpm),Bypass flow (lpm),Sample temperature (°C),Ambient temperature (°C),ASC tube jacket temperature (°C),LED temperature (°C),Box temperature (°C),Sample RH (%),Span deviation,Mass concentration (μg/m³),Mass concentration (μg/m³),Mass concentration (μg/m³)
DateTimeUTC,F1_M11,P_M11,Q1_M11,Q2_M11,T1_M11,T2_M11,T3_M11,T4_M11,T5_M11,U1_M11,ZSPAN_M11,X0_M11,X2_M11,X1_M11
2022-08-31 12:00:00,,0831.2,4.98,0.00,30.1,29.0,00.0,38.8,32.0,17.7,0000.0,0015.65,0005.93,0005.16
2022-08-31 12:01:00,,0831.2,5.01,0.00,30.1,29.1,00.0,38.9,32.0,18.0,0000.0,0015.69,0005.87,0005.11
2022-08-31 12:02:00,,0831.2,5.01,0.00,30.2,29.1,00.0,38.9,32.0,18.5,0000.0,0015.06,0005.79,0005.08
2022-08-31 12:03:00,,0831.3,4.99,0.00,30.2,29.1,00.0,38.9,32.0,19.1,0000.0,0015.23,0005.78,0005.08
2022-08-31 12:04:00,,0831.3,5.00,0.00,30.2,29.1,00.0,38.9,32.0,19.6,0000.0,0015.47,0005.78,0005.09
2022-08-31 12:05:00,,0831.3,5.01,0.00,30.2,29.1,00.0,38.9,32.0,20.0,0000.0,0014.96,0005.81,0005.11
2022-08-31 12:06:00,,0831.2,5.00,0.00,30.2,29.1,00.0,38.9,32.1,20.2,0000.0,0014.60,0005.88,0005.15
2022-08-31 12:07:00,,0831.2,5.00,0.00,30.2,29.2,00.0,39.0,32.1,20.4,0000.0,0013.87,0005.92,0005.20
2022-08-31 12:08:00,,0831.2,4.99,0.00,30.3,29.2,00.0,39.0,32.1,20.5,0000.0,0013.22,0006.00,0005.25
2022-08-31 12:09:00,,0831.2,5.01,0.00,30.3,29.2,00.0,39.0,32.1,20.6,0000.0,0012.58,0006.11,0005.33
2022-08-31 12:10:00,,0831.2,5.00,0.00,30.3,29.2,00.0,39.0,32.1,20.6,0000.0,0013.31,0006.26,0005.42
2022-08-31 12:11:00,,0831.2,4.99,0.00,30.3,29.2,00.0,39.0,32.1,20.3,0000.0,0013.48,0006.45,0005.53
2022-08-31 12:12:00,,0831.2,5.01,0.00,30.3,29.2,00.0,39.0,32.1,20.2,0000.0,0013.98,0006.59,0005.64
2022-08-31 12:13:00,,0831.2,5.00,0.00,30.3,29.2,00.0,39.0,32.1,20.0,0000.0,0014.13,0006.73,0005.72
2022-08-31 12:14:00,,0831.2,5.01,0.00,30.3,29.2,00.0,39.1,32.1,19.9,0000.0,0014.22,0006.80,0005.77
2022-08-31 12:15:00,,0831.2,4.98,0.00,30.4,29.0,00.0,39.1,32.2,19.9,0000.0,0014.22,0006.85,0005.82
2022-08-31 12:16:00,,0831.2,5.00,0.00,30.3,27.6,00.0,39.0,32.1,19.8,0000.0,0013.83,0006.86,0005.84
2022-08-31 12:17:00,,0831.2,5.01,0.00,30.3,27.0,00.0,39.0,32.0,19.8,0000.0,0013.75,0006.88,0005.85
2022-08-31 12:18:00,,0831.2,4.99,0.00,30.2,27.0,00.0,38.9,31.8,19.8,0000.0,0014.39,0006.91,0005.85
2022-08-31 12:19:00,,0831.2,5.00,0.00,30.1,27.3,00.0,38.9,31.7,19.9,0000.0,0015.04,0006.89,0005.84
2022-08-31 12:20:00,,0831.2,5.00,0.00,30.0,27.6,00.0,38.9,31.7,19.4,0000.0,0016.27,0006.87,0005.82
2022-08-31 12:21:00,,0831.2,5.01,0.00,30.0,27.9,00.0,38.8,31.7,19.4,0000.0,0016.33,0006.81,0005.78
2022-08-31 12:22:00,,0831.2,4.99,0.00,30.0,28.1,00.0,38.8,31.7,19.4,0000.0,0016.51,0006.79,0005.76
2022-08-31 12:23:00,,0831.3,5.00,0.00,30.0,28.2,00.0,38.8,31.7,19.5,0000.0,0016.52,0006.74,0005.72
2022-08-31 12:24:00,,0831.2,5.00,0.00,30.0,28.4,00.0,38.8,31.7,19.7,0000.0,0016.23,0006.72,0005.70
2022-08-31 12:25:00,,0831.2,5.01,0.00,30.0,28.5,00.0,38.8,31.8,19.8,0000.0,0016.48,0006.72,0005.70
2022-08-31 12:26:00,,0831.2,5.01,0.00,30.0,28.6,00.0,38.8,31.7,19.9,0000.0,0016.28,0006.72,0005.69
2022-08-31 12:27:00,,0831.2,5.00,0.00,30.0,28.7,00.0,38.8,31.8,19.9,0000.0,0016.66,0006.69,0005.66
2022-08-31 12:28:00,,0831.2,5.01,0.00,30.0,28.7,00.0,38.8,31.8,20.1,0000.0,0017.11,0006.68,0005.65
2022-08-31 12:29:00,,0831.2,4.98,0.00,30.0,28.8,00.0,38.8,31.8,20.2,0000.0,0017.07,0006.63,0005.64
2022-08-31 12:30:00,,0831.2,5.01,0.00,30.0,28.8,00.0,38.8,31.9,20.2,0000.0,0016.99,0006.61,0005.63
2022-08-31 12:31:00,,0831.2,5.01,0.00,30.0,28.8,00.0,38.8,31.9,20.4,0000.0,0015.79,0006.64,0005.64
2022-08-31 12:32:00,,0831.2,5.01,0.00,30.1,28.9,00.0,38.8,31.9,20.5,0000.0,0015.55,0006.74,0005.66
2022-08-31 12:33:00,,0831.2,4.98,0.00,30.1,28.9,00.0,38.8,31.9,20.5,0000.0,0015.50,0006.76,0005.67
2022-08-31 12:34:00,,0831.3,5.00,0.00,30.1,28.9,00.0,38.8,31.9,20.3,0000.0,0015.05,0006.79,0005.70
2022-08-31 12:35:00,,0831.3,5.01,0.00,30.1,29.0,00.0,38.8,31.9,20.3,0000.0,0015.54,0006.87,0005.72
2022-08-31 12:36:00,,0831.3,5.01,0.00,30.1,29.0,00.0,38.9,31.9,20.0,0000.0,0015.68,0006.87,0005.72
2022-08-31 12:37:00,,0831.3,4.99,0.00,30.1,29.0,00.0,38.9,32.0,19.7,0000.0,0015.46,0006.88,0005.71
2022-08-31 12:38:00,,0831.3,5.01,0.00,30.1,29.0,00.0,38.9,32.0,19.7,0000.0,0015.08,0006.89,0005.72
2022-08-31 12:39:00,,0831.3,5.01,0.00,30.2,29.1,00.0,38.9,32.0,19.8,0000.0,0014.84,0006.89,0005.73
2022-08-31 12:40:00,,0831.3,5.01,0.00,30.2,29.1,00.0,38.9,32.0,19.8,0000.0,0014.34,0006.89,0005.74
2022-08-31 12:41:00,,0831.3,5.00,0.00,30.2,29.1,00.0,38.9,32.0,19.9,0000.0,0014.14,0006.93,0005.74
2022-08-31 12:42:00,,0831.3,5.00,0.00,30.2,29.1,00.0,38.9,32.0,19.9,0000.0,0014.33,0006.91,0005.73
2022-08-31 12:43:00,,0831.3,5.00,0.00,30.2,29.2,00.0,39.0,32.1,19.9,0000.0,0013.47,0006.88,0005.74
2022-08-31 12:44:00,,0831.3,5.00,0.00,30.3,29.2,00.0,39.0,32.1,19.9,0000.0,0013.54,0006.90,0005.74
2022-08-31 12:45:00,,0831.3,5.00,0.00,30.3,29.2,00.0,39.0,32.1,19.9,0000.0,0013.62,0006.90,0005.74
2022-08-31 12:46:00,,0831.4,5.01,0.00,30.3,29.2,00.0,39.0,32.1,19.9,0000.0,0013.42,0006.83,0005.74
2022-08-31 12:47:00,,0831.3,5.01,0.00,30.3,29.3,00.0,39.0,32.1,19.9,0000.0,0013.81,0006.83,0005.74
2022-08-31 12:48:00,,0831.3,4.98,0.00,30.3,29.3,00.0,39.0,32.2,20.0,0000.0,0014.00,0006.83,0005.76
2022-08-31 12:49:00,,0831.3,5.01,0.00,30.4,29.3,00.0,39.0,32.2,19.9,0000.0,0014.85,0006.84,0005.77
2022-08-31 12:50:00,,0831.3,5.01,0.00,30.4,29.3,00.0,39.1,32.2,20.1,0000.0,0015.37,0006.85,0005.77
2022-08-31 12:51:00,,0831.3,4.99,0.00,30.4,28.9,00.0,39.1,32.2,20.1,0000.0,0016.32,0006.84,0005.78
2022-08-31 12:52:00,,0831.3,5.00,0.00,30.4,27.5,00.0,39.0,32.1,20.6,0000.0,0016.55,0006.83,0005.78
2022-08-31 12:53:00,,0831.3,4.99,0.00,30.3,27.2,00.0,39.0,32.0,20.7,0000.0,0017.62,0006.89,0005.79
2022-08-31 12:54:00,,0831.3,5.01,0.00,30.2,27.3,00.0,38.9,31.9,20.7,0000.0,0019.30,0006.94,0005.79
2022-08-31 12:55:00,,0831.3,5.00,0.00,30.1,27.6,00.0,38.9,31.7,21.1,0000.0,0020.66,0006.96,0005.79
2022-08-31 12:56:00,,0831.4,4.99,0.00,30.1,27.9,00.0,38.9,31.7,20.9,0000.0,0021.10,0007.01,0005.77
2022-08-31 12:57:00,,0831.4,5.01,0.00,30.1,28.1,00.0,38.9,31.8,21.0,0000.0,0022.85,0007.05,0005.77
2022-08-31 12:58:00,,0831.4,4.99,0.00,30.1,28.3,00.0,38.9,31.8,20.9,0000.0,0023.23,0007.07,0005.77
2022-08-31 12:59:00,,0831.5,5.01,0.00,30.1,28.5,00.0,38.9,31.8,20.9,0000.0,0023.28,0007.09,0005.75
